• In Lithuania
  • List of Countries
  • For 7 days
  • Water Temperature
  • Satellite Maps
  • Weather Map
  • Weather Widgets
  • user-avatar
    Login

    Hourly Weather Sankt Polten

    Today, 23 July, Sunday

    Time Temperature Precipitation Wind Pressure Humidity
    00:00 +21°C° 0.3 mm 1 mps 735 mmHg 84%
    01:00 +21°C° 0.3 mm 1 mps 735 mmHg 85%
    02:00 +21°C° 0.2 mm 1 mps 735 mmHg 85%
    03:00 +20°C° 0.2 mm 1 mps 735 mmHg 85%
    04:00 +20°C° 0.2 mm 1 mps 735 mmHg 86%
    05:00 +21°C° 0.1 mm 1 mps 735 mmHg 83%
    06:00 +23°C° 0.1 mm 1 mps 736 mmHg 80%
    07:00 +24°C° 0.1 mm 1 mps 736 mmHg 77%
    08:00 +25°C° 0.3 mm 2 mps 736 mmHg 72%
    09:00 +26°C° 0.3 mm 2 mps 736 mmHg 67%
    10:00 +27°C° 0.3 mm 3 mps 736 mmHg 62%
    11:00 +28°C° 0.1 mm 3 mps 736 mmHg 59%
    12:00 +28°C° 0.1 mm 2 mps 736 mmHg 56%
    13:00 +29°C° 0 mm 2 mps 736 mmHg 52%
    14:00 +29°C° 0.3 mm 2 mps 736 mmHg 53%
    15:00 +28°C° 0.3 mm 2 mps 736 mmHg 54%
    16:00 +28°C° 0.3 mm 2 mps 736 mmHg 56%
    17:00 +27°C° 0.5 mm 1 mps 736 mmHg 63%
    18:00 +25°C° 0.5 mm 1 mps 736 mmHg 70%
    19:00 +24°C° 0.5 mm 1 mps 735 mmHg 78%
    20:00 +23°C° 0.5 mm 1 mps 736 mmHg 81%
    21:00 +22°C° 0.5 mm 1 mps 736 mmHg 84%
    22:00 +20°C° 0.5 mm 1 mps 736 mmHg 87%
    23:00 +20°C° 0.4 mm 1 mps 735 mmHg 89%

    Tomorrow, 24 July, Monday

    Time Temperature Precipitation Wind Pressure Humidity
    00:00 +20°C° 0.4 mm 1 mps 735 mmHg 90%
    01:00 +20°C° 0.4 mm 1 mps 735 mmHg 92%
    02:00 +18°C° 0.1 mm 0 mps 735 mmHg 92%
    03:00 +18°C° 0.1 mm 0 mps 734 mmHg 93%
    04:00 +17°C° 0.1 mm 0 mps 734 mmHg 93%
    05:00 +20°C° 1.6 mm 1 mps 733 mmHg 93%
    06:00 +20°C° 1.6 mm 1 mps 733 mmHg 94%
    07:00 +20°C° 1.6 mm 1 mps 732 mmHg 94%
    08:00 +21°C° 1.2 mm 1 mps 732 mmHg 92%
    09:00 +20°C° 1.2 mm 2 mps 732 mmHg 91%
    10:00 +21°C° 1.2 mm 2 mps 732 mmHg 90%
    11:00 +20°C° 1.6 mm 2 mps 731 mmHg 90%
    12:00 +20°C° 1.6 mm 2 mps 731 mmHg 90%
    13:00 +20°C° 1.6 mm 2 mps 731 mmHg 91%
    14:00 +19°C° 1.6 mm 2 mps 730 mmHg 92%
    15:00 +18°C° 1.6 mm 2 mps 730 mmHg 92%
    16:00 +18°C° 1.6 mm 2 mps 730 mmHg 93%
    17:00 +18°C° 0.2 mm 3 mps 730 mmHg 92%
    18:00 +18°C° 0.2 mm 3 mps 730 mmHg 92%
    19:00 +18°C° 0.2 mm 3 mps 730 mmHg 92%
    20:00 +17°C° 0.1 mm 4 mps 730 mmHg 92%
    21:00 +17°C° 0.1 mm 4 mps 730 mmHg 92%
    22:00 +17°C° 0.1 mm 4 mps 730 mmHg 91%
    23:00 +15°C° 0 mm 4 mps 730 mmHg 90%

    Day after tomorrow, 25 July, Tuesday

    Time Temperature Precipitation Wind Pressure Humidity
    00:00 +15°C° 0 mm 4 mps 730 mmHg 90%
    01:00 +15°C° 0 mm 4 mps 731 mmHg 89%
    02:00 +14°C° 0 mm 4 mps 730 mmHg 89%
    03:00 +14°C° 0 mm 4 mps 730 mmHg 89%
    04:00 +14°C° 0 mm 4 mps 730 mmHg 89%
    05:00 +14°C° 0 mm 4 mps 730 mmHg 86%
    06:00 +14°C° 0 mm 5 mps 730 mmHg 84%
    07:00 +15°C° 0 mm 5 mps 730 mmHg 82%
    08:00 +16°C° 0 mm 5 mps 730 mmHg 76%
    09:00 +17°C° 0 mm 5 mps 730 mmHg 71%
    10:00 +19°C° 0 mm 6 mps 730 mmHg 65%
    11:00 +20°C° 0 mm 6 mps 730 mmHg 61%
    12:00 +21°C° 0 mm 6 mps 729 mmHg 56%
    13:00 +22°C° 0 mm 6 mps 729 mmHg 51%
    14:00 +22°C° 0.1 mm 6 mps 729 mmHg 52%
    15:00 +22°C° 0.1 mm 6 mps 729 mmHg 53%
    16:00 +21°C° 0.1 mm 5 mps 729 mmHg 55%
    17:00 +20°C° 0 mm 5 mps 729 mmHg 61%
    18:00 +19°C° 0 mm 4 mps 729 mmHg 66%
    19:00 +18°C° 0 mm 3 mps 729 mmHg 72%
    20:00 +17°C° 0 mm 3 mps 729 mmHg 77%
    21:00 +16°C° 0 mm 3 mps 730 mmHg 82%
    22:00 +13°C° 0 mm 3 mps 730 mmHg 86%
    23:00 +13°C° 0 mm 3 mps 730 mmHg 88%

    26 July, Wednesday

    Time Temperature Precipitation Wind Pressure Humidity
    00:00 +12°C° 0 mm 3 mps 730 mmHg 89%
    01:00 +13°C° 0 mm 2 mps 730 mmHg 91%
    02:00 +13°C° 0 mm 2 mps 730 mmHg 91%
    03:00 +13°C° 0 mm 2 mps 730 mmHg 91%
    04:00 +12°C° 0 mm 2 mps 729 mmHg 91%
    05:00 +14°C° 0 mm 2 mps 729 mmHg 84%
    06:00 +15°C° 0 mm 2 mps 729 mmHg 77%
    07:00 +17°C° 0 mm 2 mps 729 mmHg 71%
    08:00 +18°C° 0 mm 2 mps 730 mmHg 66%
    09:00 +20°C° 0 mm 3 mps 730 mmHg 61%
    10:00 +21°C° 0 mm 3 mps 730 mmHg 56%
    11:00 +20°C° 0.2 mm 3 mps 730 mmHg 59%
    12:00 +20°C° 0.2 mm 3 mps 730 mmHg 62%
    13:00 +20°C° 0.2 mm 4 mps 730 mmHg 65%
    14:00 +20°C° 0.2 mm 4 mps 730 mmHg 65%
    15:00 +20°C° 0.2 mm 4 mps 730 mmHg 66%
    16:00 +20°C° 0.2 mm 4 mps 730 mmHg 66%
    17:00 +19°C° 0.3 mm 4 mps 730 mmHg 71%
    18:00 +18°C° 0.3 mm 3 mps 731 mmHg 76%
    19:00 +17°C° 0.3 mm 3 mps 731 mmHg 81%
    20:00 +16°C° 0.4 mm 3 mps 732 mmHg 83%
    21:00 +15°C° 0.4 mm 4 mps 732 mmHg 85%
    22:00 +14°C° 0.4 mm 4 mps 733 mmHg 87%
    23:00 +14°C° 0.2 mm 4 mps 733 mmHg 88%

    27 July, Thursday

    Time Temperature Precipitation Wind Pressure Humidity
    00:00 +14°C° 0.2 mm 4 mps 733 mmHg 88%
    01:00 +14°C° 0.2 mm 4 mps 733 mmHg 89%
    02:00 +14°C° 0 mm 3 mps 733 mmHg 89%
    03:00 +13°C° 0 mm 3 mps 733 mmHg 89%
    04:00 +13°C° 0 mm 3 mps 733 mmHg 90%
    05:00 +14°C° 0 mm 3 mps 734 mmHg 87%
    06:00 +16°C° 0 mm 3 mps 734 mmHg 85%
    07:00 +16°C° 0 mm 3 mps 734 mmHg 83%
    08:00 +18°C° 0 mm 3 mps 734 mmHg 76%
    09:00 +19°C° 0 mm 4 mps 734 mmHg 69%
    10:00 +21°C° 0 mm 4 mps 734 mmHg 63%
    11:00 +22°C° 0 mm 4 mps 734 mmHg 59%
    12:00 +23°C° 0 mm 4 mps 734 mmHg 56%
    13:00 +25°C° 0 mm 4 mps 734 mmHg 53%
    14:00 +25°C° 0.2 mm 3 mps 734 mmHg 55%
    15:00 +25°C° 0.2 mm 3 mps 733 mmHg 56%
    16:00 +25°C° 0.2 mm 3 mps 733 mmHg 58%
    17:00 +24°C° 0.3 mm 2 mps 733 mmHg 65%
    18:00 +21°C° 0.3 mm 2 mps 733 mmHg 73%
    19:00 +21°C° 0.3 mm 1 mps 734 mmHg 81%
    20:00 +20°C° 0 mm 1 mps 734 mmHg 84%
    21:00 +19°C° 0 mm 1 mps 734 mmHg 87%
    22:00 +18°C° 0 mm 1 mps 735 mmHg 90%
    23:00 +16°C° 0 mm 1 mps 735 mmHg 90%

    28 July, Friday

    Time Temperature Precipitation Wind Pressure Humidity
    00:00 +16°C° 0 mm 1 mps 735 mmHg 90%
    01:00 +16°C° 0 mm 1 mps 735 mmHg 90%
    02:00 +16°C° 0 mm 1 mps 735 mmHg 89%
    03:00 +16°C° 0 mm 1 mps 735 mmHg 89%
    04:00 +16°C° 0 mm 1 mps 735 mmHg 88%
    05:00 +17°C° 0 mm 2 mps 735 mmHg 85%
    06:00 +18°C° 0 mm 2 mps 736 mmHg 82%
    07:00 +20°C° 0 mm 2 mps 736 mmHg 78%
    08:00 +21°C° 0.1 mm 3 mps 736 mmHg 72%
    09:00 +24°C° 0.1 mm 3 mps 736 mmHg 66%
    10:00 +26°C° 0.1 mm 4 mps 736 mmHg 60%
    11:00 +26°C° 0.2 mm 4 mps 736 mmHg 57%
    12:00 +27°C° 0.2 mm 4 mps 736 mmHg 54%
    13:00 +28°C° 0.2 mm 5 mps 735 mmHg 51%
    14:00 +28°C° 0.1 mm 4 mps 735 mmHg 51%
    15:00 +28°C° 0.1 mm 4 mps 735 mmHg 52%
    16:00 +28°C° 0.1 mm 4 mps 735 mmHg 52%
    17:00 +26°C° 0.3 mm 4 mps 736 mmHg 62%
    18:00 +24°C° 0.3 mm 3 mps 736 mmHg 71%
    19:00 +21°C° 0.3 mm 3 mps 736 mmHg 80%
    20:00 +20°C° 0.2 mm 3 mps 737 mmHg 84%
    21:00 +19°C° 0.2 mm 3 mps 737 mmHg 87%
    22:00 +18°C° 0.2 mm 3 mps 738 mmHg 90%
    23:00 +18°C° 0 mm 3 mps 738 mmHg 91%
    Show more